www.pogodaiklimat.ru

ПОГОДА в Оклахома-Сити, OK

  • Прогноз погоды в Оклахома-Сити
  • Монитор погоды в Оклахома-Сити
  • Климат в Оклахома-Сити

АРХИВ ПОГОДЫ в Оклахома-Сити

Время (UTC), дата Ветер
(напр.,м/с)
 
Видим.   Явления Облачность Т
(С)
Тd
(С)
f
(%)
Тe
(С)
Тes
(С)
Комфортность

P
(гПа)

Po
(гПа)
Тmin
(С)
Tmax
(С)
R
(мм)
SD
(см)
18:41 23.03 ЮВ  16 км    10/10 870 м  +18.0  +12.0  68  +18  +18    1013.3  966.6         
18:56 23.03 Ю  6
{9} 
16 км    8/8 870 м  +20.3  +11.8  58  +22  +23  комфорт  1012.8  966.3         
19:11 23.03 ЮВ  5
{11} 
16 км    8/8 900 м  +20.0  +12.0  60  +21  +22  комфорт  1012.8  966.3         
19:56 23.03 Ю  16 км    2/2 1020 м  +21.2  +12.3  57  +23  +26  комфорт  1012.6  966.0         
21:32 23.03 Ю  7
{10} 
16 км    5/5 1050 м  +21.0  +13.0  60  +23  +24  комфорт  1011.0  964.4         
21:56 23.03 Ю  7
{10} 
16 км    2/2 960 м  +20.7  +13.4  63  +23  +24  комфорт  1011.7  965.0         
22:56 23.03 Ю  6
{8} 
16 км    8/5 1800 м
[средняя] 
+19.8  +13.9  69  +21  +21  комфорт  1012.4  965.7  +15.7  +21.5     
23:56 23.03   16 км    2/2 1950 м
[средняя] 
+18.6  +14.3  76  +19  +20    1012.5  965.7         
00:16 24.03 С  16 км  гроза  ясно  +18.0  +14.0  77  +19  +19    1012.2  965.3         
00:25 24.03 СВ  16 км  гроза  8/5 1200 м
[средняя] 
+18.0  +14.0  77  +19  +19    1012.2  965.3         
01:03 24.03 СВ  16 км    2/2 1200 м  +15.2  +14.7  97  +14  +14    1013.3  966.3         
01:56 24.03 В  16 км    2/2 1950 м  +14.4  +14.4  100  +13  +13    1014.4  967.3         
02:56 24.03 Ю  16 км    8/0 2100 м
[средняя] 
+14.6  +14.6  100  +13  +13    1015.3  968.2         
03:56 24.03 Ю  16 км    ясно  +13.9  +13.9  100  +12  +12    1015.2  968.2         
04:56 24.03 Ю  16 км    ясно  +13.8  +13.8  100  +11  +11    1014.8  967.9  +13.6  +19.8     
05:56 24.03 Ю  16 км    ясно  +14.6  +14.6  100  +12  +12    1014.3  967.6         
06:56 24.03 Ю  16 км    ясно  +14.8  +14.8  100  +13  +13    1013.9  967.3         
07:11 24.03 Ю  16 км    8/8 450 м  +16.0  +16.0  100  +15  +15    1013.9  967.3         
08:56 24.03 Ю  16 км    10/10 360 м  +16.3  +16.3  100  +15  +15    1013.5  967.0         
09:26 24.03 Ю  16 км    10/10 450 м  +16.0  +16.0  100  +15  +15    1013.9  967.3         
10:26 24.03 Ю  16 км    8/8 630 м  +15.0  +15.0  100  +14  +14    1014.2  967.6         
10:56 24.03 ЮЗ  16 км    10/10 450 м  +15.0  +15.0  100  +15  +15    1015.0  968.2  +13.8  +16.5     
11:26 24.03 ЮЗ  16 км    10/10 390 м  +16.0  +16.0  100  +16  +16    1014.9  968.2         
11:54 24.03 СЗ  8 км  дымка  10/10 240 м  +15.0  +15.0  100  +14  +14    1015.0  968.2         
11:56 24.03 С  8 км  дымка  10/10 240 м  +14.6  +14.6  100  +14  +14    1015.0  968.2         
12:04 24.03 С  6 км  дымка  10/10 210 м  +13.0  +13.0  100  +11  +11    1015.1  968.2         
12:34 24.03 С  5 км  дымка  10/10 60 м  +13.0  +13.0  100  +11  +11    1015.5  968.6         
12:56 24.03 С  6 км  дымка  10/10 60 м  +12.9  +12.9  100  +11  +11    1015.9  968.9         
13:26 24.03 С  10 км  дымка  10/10 180 м  +13.0  +13.0  100  +11  +11    1016.3  969.2         
14:11 24.03 С  13 км    8/8 150 м  +14.0  +14.0  100  +12  +13    1016.6  969.5         
14:26 24.03 С  13 км    10/10 180 м  +14.0  +14.0  100  +12  +12    1017.0  969.9         
14:56 24.03 С  11 км    10/10 180 м  +13.4  +13.4  100  +11  +11    1017.3  970.2         
15:11 24.03 С  10 км  дымка  10/10 150 м  +13.0  +13.0  100  +11  +11    1017.3  970.2         
15:56 24.03 С  13 км    10/10 180 м  +14.4  +12.8  90  +14  +14    1017.3  970.2         
16:11 24.03 СЗ  14 км    10/10 240 м  +15.0  +12.0  82  +14  +14    1017.2  970.2         
16:26 24.03 С  16 км    10/10 300 м  +16.0  +12.0  77  +15  +15    1016.9  969.9         
16:56 24.03 С  16 км    10/10 360 м  +15.7  +11.9  78  +15  +15    1017.2  970.2  +12.7  +16.0     
18:56 24.03 С  16 км    2/0 6300 м
[верхняя] 
+18.2  +9.3  56  +18  +23    1016.1  969.2         
19:56 24.03 СЗ  16 км    ясно  +18.4  +8.4  52  +18  +21    1016.0  969.2         
20:56 24.03 С  16 км    ясно  +18.3  +8.5  53  +18  +25    1016.0  969.2         
21:56 24.03 С  16 км    ясно  +18.2  +7.0  48  +18  +21    1016.3  969.5         
22:56 24.03 С  16 км    ясно  +16.8  +6.9  52  +16  +17    1016.4  969.5  +15.5  +18.7     
23:56 24.03 С  16 км    ясно  +15.2  +7.7  61  +14  +14    1016.9  969.9         
00:56 25.03 С  16 км    ясно  +13.5  +7.9  69  +12  +12    1017.7  970.5         
01:56 25.03 С  16 км    ясно  +12.2  +7.3  72  +10  +10    1018.8  971.5         
02:56 25.03 С  16 км    ясно  +12.2  +7.9  75  +11  +11    1019.1  971.8         
03:56 25.03 С  16 км    ясно  +11.4  +7.7  78  +10  +10    1019.8  972.4         
04:56 25.03 С  16 км    2/0 5400 м
[средняя] 
+10.8  +7.8  82  +8  +8    1020.1  972.8  +10.8  +17.1     

 

Местоположение метеостанции Tinker Air Force Base: широта 35.4167 долгота -97.3833 высота над уровнем моря 394 м.

В архиве по умолчанию представлена погода в Оклахома-Сити за последние 1-2 суток. Обновление информации о фактической погоде в базе происходит ежечасно! Архивные данные за месяц целиком и за предыдущие месяцы Вы можете получить, выбрав интересующий диапазон дат из раскрывающегося списка и нажав кнопку "Ввод!".

Внимание! Архив погоды МЕТАР в базе сайта хранится не более 60 дней. Нет смысла пытаться выбрать более раннюю дату.

Внимание! Время в таблицах - всемирное. Для получения местного времени необходимо прибавить поправку, которая в Оклахома-Сити равна -6 ч.

Ветер - указаны скорость ветра в м/с и направление, откуда дует ветер: С - северный, СВ - северо-восточный, В - восточный, ЮВ - юго-восточный, Ю - южный, ЮЗ - юго-западный, З - западный, СЗ - северо-западный.
Видимость - горизонтальная дальность видимости в метрах или километрах. При видимости от 1 до 10 км при отсутствии осадков обычно наблюдается дымка, при ухудшении видимости до 1 км и менее - туман. В сухую погоду видимость может ухудшаться дымом, пылью или мглою.
Атмосферные явления - указаны явления, наблюдавшиеся в указанный момент времени.
Облачность - указаны через наклонную черту верхняя и нижняя облачность в баллах и высота нижней границы облаков в метрах. Внимание: облачность, как и прочие метеорологические величины в США измеряются автоматическими метеостанциями. Указанные значения в баллах носят условный характер и показывают процент времени, в течение которого, в среднем, лазерный луч высотомера отражался от облаков обратно.
T - Температура воздуха - температура, измеренная на высоте 2 м над землей.
Td - Температура точки росы - температура, при понижении до которой содержащийся в воздухе водяной пар достигнет насыщения.
f - Относительная влажность воздуха - влажноcть воздуха, измеренная на высоте 2 м над землей.
Te - Эффективная температура - температура, которую ощущает одетый по сезону человек в тени. Характеристика душности погоды. При расчете учитывается влияние влажности воздуха и скорости ветра на теплоощущения человека.
Tes - Эффективная температура на солнце - температура, которую ощущает человек, с поправкой на солнечный нагрев. Характеристика знойности погоды. Зависит от высоты солнца над горизонтом, облачности и скорости ветра. Ночью, в пасмурную погоду, а также при ветре 12 м/с и более поправка равна нулю.
P - Атмосферное давление - приведенное к уровню моря атмосферное давление.
Po - Атмосферное давление - измеренное на уровне метеостанции атмосферное давление.
Tmin - Минимальная температура - минимум температуры воздуха на высоте 2 м над землей.
Tmax - Максимальная температура - максимум температуры воздуха на высоте 2 м над землей.
R - Количество осадков - Количество выпавших осадков за 3 или 6 часов, мм.
SD - Снежный покров - Высота снежного покрова, см.